When you browse on this site, cookies collect data to enhance your experience and personalize the content and advertising you see.
Visit our Privacy Policy to learn more. By continuing to use the site, you agree to this use of cookies and data.
EN

Hourly Weather Oyem

Today, 11 July, Saturday

Time Temperature Precipitation Wind Pressure Humidity
00:00 +22°C° 1.4 mm 1 mps 704 mmHg 98%
01:00 +22°C° 0 mm 1 mps 704 mmHg 99%
02:00 +22°C° 0.3 mm 1 mps 704 mmHg 99%
03:00 +22°C° 0.3 mm 1 mps 704 mmHg 99%
04:00 +22°C° 0.3 mm 1 mps 703 mmHg 99%
05:00 +22°C° 0 mm 1 mps 704 mmHg 99%
06:00 +22°C° 0 mm 1 mps 704 mmHg 98%
07:00 +22°C° 0 mm 1 mps 704 mmHg 98%
08:00 +23°C° 0.2 mm 1 mps 704 mmHg 95%
09:00 +24°C° 0.2 mm 1 mps 705 mmHg 91%
10:00 +25°C° 0.2 mm 1 mps 705 mmHg 87%
11:00 +26°C° 0.9 mm 1 mps 705 mmHg 86%
12:00 +27°C° 0.9 mm 1 mps 704 mmHg 84%
13:00 +28°C° 0 mm 1 mps 704 mmHg 66%
14:00 +28°C° 0 mm 1 mps 704 mmHg 66%
15:00 +28°C° 0 mm 1 mps 703 mmHg 66%
16:00 +28°C° 0 mm 1 mps 703 mmHg 66%
17:00 +27°C° 0.1 mm 1 mps 703 mmHg 75%
18:00 +25°C° 0.1 mm 1 mps 703 mmHg 83%
19:00 +23°C° 0.1 mm 1 mps 703 mmHg 92%
20:00 +23°C° 0.1 mm 1 mps 703 mmHg 94%
21:00 +23°C° 0.1 mm 1 mps 704 mmHg 96%
22:00 +22°C° 0.1 mm 1 mps 704 mmHg 98%
23:00 +22°C° 0 mm 1 mps 704 mmHg 98%

Tomorrow, 12 July, Sunday

Time Temperature Precipitation Wind Pressure Humidity
00:00 +22°C° 0 mm 1 mps 704 mmHg 98%
01:00 +22°C° 0 mm 1 mps 704 mmHg 98%
02:00 +22°C° 0 mm 1 mps 704 mmHg 97%
03:00 +22°C° 0 mm 1 mps 704 mmHg 96%
04:00 +22°C° 0 mm 1 mps 704 mmHg 96%
05:00 +22°C° 0 mm 1 mps 704 mmHg 95%
06:00 +22°C° 0 mm 1 mps 704 mmHg 95%
07:00 +22°C° 0 mm 1 mps 705 mmHg 94%
08:00 +23°C° 0.1 mm 1 mps 705 mmHg 89%
09:00 +24°C° 0.1 mm 1 mps 706 mmHg 83%
10:00 +26°C° 0.1 mm 1 mps 706 mmHg 78%
11:00 +27°C° 0.3 mm 1 mps 706 mmHg 74%
12:00 +28°C° 0.3 mm 1 mps 705 mmHg 71%
13:00 +29°C° 0.3 mm 1 mps 705 mmHg 67%
14:00 +28°C° 1.1 mm 1 mps 704 mmHg 72%
15:00 +28°C° 1.1 mm 1 mps 703 mmHg 77%
16:00 +27°C° 1.1 mm 1 mps 702 mmHg 82%
17:00 +26°C° 0.6 mm 1 mps 703 mmHg 87%
18:00 +24°C° 0.6 mm 1 mps 703 mmHg 92%
19:00 +23°C° 0.6 mm 1 mps 703 mmHg 97%
20:00 +23°C° 0.1 mm 1 mps 704 mmHg 97%
21:00 +22°C° 0.1 mm 1 mps 704 mmHg 98%
22:00 +22°C° 0.1 mm 1 mps 704 mmHg 99%
23:00 +22°C° 0 mm 1 mps 704 mmHg 99%

Day after tomorrow, 13 July, Monday

Time Temperature Precipitation Wind Pressure Humidity
00:00 +22°C° 0 mm 1 mps 704 mmHg 99%
01:00 +21°C° 0 mm 1 mps 704 mmHg 99%
02:00 +21°C° 0 mm 1 mps 704 mmHg 99%
03:00 +21°C° 0 mm 1 mps 704 mmHg 98%
04:00 +21°C° 0 mm 1 mps 703 mmHg 98%
05:00 +21°C° 0 mm 1 mps 704 mmHg 98%
06:00 +19°C° 0 mm 0 mps 704 mmHg 98%
07:00 +19°C° 0 mm 0 mps 704 mmHg 97%
08:00 +21°C° 0 mm 0 mps 705 mmHg 90%
09:00 +25°C° 0 mm 1 mps 705 mmHg 83%
10:00 +26°C° 0 mm 1 mps 706 mmHg 76%
11:00 +27°C° 0 mm 1 mps 705 mmHg 70%
12:00 +29°C° 0 mm 1 mps 704 mmHg 64%
13:00 +30°C° 0 mm 1 mps 704 mmHg 58%
14:00 +29°C° 1.1 mm 1 mps 703 mmHg 68%
15:00 +28°C° 1.1 mm 1 mps 702 mmHg 78%
16:00 +26°C° 1.1 mm 1 mps 701 mmHg 89%
17:00 +25°C° 1.2 mm 1 mps 701 mmHg 91%
18:00 +24°C° 1.2 mm 1 mps 702 mmHg 94%
19:00 +23°C° 1.2 mm 1 mps 702 mmHg 96%
20:00 +23°C° 1.1 mm 1 mps 703 mmHg 97%
21:00 +22°C° 1.1 mm 1 mps 703 mmHg 97%
22:00 +22°C° 1.1 mm 1 mps 704 mmHg 98%
23:00 +22°C° 0 mm 1 mps 704 mmHg 98%

14 July, Tuesday

Time Temperature Precipitation Wind Pressure Humidity
00:00 +22°C° 0 mm 1 mps 704 mmHg 98%
01:00 +21°C° 0 mm 1 mps 704 mmHg 98%
02:00 +21°C° 0 mm 1 mps 703 mmHg 98%
03:00 +21°C° 0 mm 1 mps 703 mmHg 98%
04:00 +21°C° 0 mm 1 mps 703 mmHg 97%
05:00 +21°C° 0 mm 1 mps 703 mmHg 97%
06:00 +21°C° 0 mm 1 mps 703 mmHg 97%
07:00 +21°C° 0 mm 1 mps 704 mmHg 97%
08:00 +22°C° 0.1 mm 1 mps 704 mmHg 95%
09:00 +22°C° 0.1 mm 1 mps 704 mmHg 93%
10:00 +23°C° 0.1 mm 1 mps 705 mmHg 92%
11:00 +24°C° 0 mm 1 mps 704 mmHg 85%
12:00 +25°C° 0 mm 1 mps 704 mmHg 78%
13:00 +26°C° 0 mm 1 mps 704 mmHg 71%
14:00 +26°C° 0.9 mm 1 mps 703 mmHg 77%
15:00 +26°C° 0.9 mm 1 mps 703 mmHg 83%
16:00 +26°C° 0.9 mm 1 mps 702 mmHg 89%
17:00 +24°C° 1.5 mm 1 mps 703 mmHg 91%
18:00 +23°C° 1.5 mm 1 mps 703 mmHg 94%
19:00 +22°C° 1.5 mm 1 mps 703 mmHg 97%
20:00 +22°C° 0.8 mm 1 mps 703 mmHg 97%
21:00 +22°C° 0.8 mm 1 mps 704 mmHg 98%
22:00 +21°C° 0.8 mm 1 mps 704 mmHg 98%
23:00 +21°C° 0.2 mm 1 mps 704 mmHg 98%

15 July, Wednesday

Time Temperature Precipitation Wind Pressure Humidity
00:00 +21°C° 0.2 mm 1 mps 704 mmHg 98%
01:00 +21°C° 0.2 mm 1 mps 704 mmHg 99%
02:00 +21°C° 0 mm 1 mps 703 mmHg 99%
03:00 +21°C° 0 mm 1 mps 703 mmHg 99%
04:00 +21°C° 0 mm 1 mps 703 mmHg 99%
05:00 +19°C° 0 mm 0 mps 703 mmHg 99%
06:00 +19°C° 0 mm 0 mps 703 mmHg 98%
07:00 +19°C° 0 mm 0 mps 704 mmHg 98%
08:00 +20°C° 0 mm 0 mps 704 mmHg 97%
09:00 +20°C° 0 mm 0 mps 705 mmHg 95%
10:00 +21°C° 0 mm 0 mps 705 mmHg 93%
11:00 +23°C° 0 mm 1 mps 705 mmHg 91%
12:00 +23°C° 0 mm 1 mps 705 mmHg 89%
13:00 +24°C° 0 mm 1 mps 704 mmHg 87%
14:00 +25°C° 0 mm 1 mps 704 mmHg 82%
15:00 +26°C° 0 mm 1 mps 703 mmHg 77%
16:00 +26°C° 0 mm 2 mps 703 mmHg 72%
17:00 +25°C° 0.1 mm 1 mps 703 mmHg 80%
18:00 +24°C° 0.1 mm 1 mps 703 mmHg 87%
19:00 +22°C° 0.1 mm 1 mps 703 mmHg 95%
20:00 +22°C° 0.1 mm 1 mps 704 mmHg 96%
21:00 +21°C° 0.1 mm 1 mps 704 mmHg 98%
22:00 +21°C° 0.1 mm 1 mps 705 mmHg 99%
23:00 +21°C° 0.1 mm 1 mps 705 mmHg 99%

16 July, Thursday

Time Temperature Precipitation Wind Pressure Humidity
00:00 +21°C° 0.1 mm 1 mps 705 mmHg 99%
01:00 +21°C° 0.1 mm 1 mps 704 mmHg 99%
02:00 +21°C° 0 mm 1 mps 704 mmHg 99%
03:00 +21°C° 0 mm 1 mps 704 mmHg 98%
04:00 +21°C° 0 mm 1 mps 704 mmHg 98%
05:00 +21°C° 0 mm 1 mps 704 mmHg 98%
06:00 +19°C° 0 mm 0 mps 705 mmHg 98%
07:00 +19°C° 0 mm 0 mps 705 mmHg 97%
08:00 +22°C° 0 mm 1 mps 705 mmHg 94%
09:00 +23°C° 0 mm 1 mps 706 mmHg 90%
10:00 +24°C° 0 mm 1 mps 706 mmHg 87%
11:00 +25°C° 1.2 mm 1 mps 706 mmHg 88%
12:00 +25°C° 1.2 mm 1 mps 705 mmHg 88%
13:00 +26°C° 1.2 mm 2 mps 705 mmHg 89%
14:00 +25°C° 1.2 mm 2 mps 704 mmHg 89%
15:00 +25°C° 1.2 mm 2 mps 704 mmHg 89%
16:00 +25°C° 1.2 mm 2 mps 703 mmHg 89%
17:00 +24°C° 0.4 mm 2 mps 703 mmHg 92%
18:00 +23°C° 0.4 mm 1 mps 703 mmHg 95%
19:00 +22°C° 0.4 mm 1 mps 704 mmHg 98%
20:00 +22°C° 0.2 mm 1 mps 704 mmHg 98%
21:00 +22°C° 0.2 mm 1 mps 704 mmHg 98%
22:00 +21°C° 0.2 mm 1 mps 705 mmHg 98%
23:00 +21°C° 0 mm 1 mps 705 mmHg 98%
Show more